QPF
0.00 0.00 0.00 0.00 0.00 0.00 0.00 0.00 0.00 0.00 0.00 0.00 0.00 0.00 0.00 0.00 0.00 0.01 0.00 0.00 0.00 0.00 0.00 0.00 0.00 0.00 0.00 0.01 0.00 0.01 0.00 0.00 0.00 0.00 0.00 0.00 0.00 0.00 0.00 0.00 0.00 0.00 0.00 0.00 0.00 0.01 0.01 0.00 0.00
0.00 0.00 0.00 0.00 0.00 0.00 0.00 0.00 0.00 0.00 0.00 0.00 0.00 0.00 0.00 0.00 0.00 0.00 0.00 0.00 0.00 0.00 0.00 0.00 0.00 0.00 0.00 0.00 0.00 0.00 0.00 0.00 0.00 0.00 0.00 0.00 0.00 0.00 0.00 0.00 0.00 0.00 0.00 0.00 0.00 0.00 0.00 0.00 0.00
0.00 0.00 0.00 0.00 0.00 0.00 0.00 0.00 0.00 0.00 0.00 0.00 0.00 0.00 0.00 0.00 0.00 0.00 0.00 0.00 0.00 0.00 0.00 0.00 0.00 0.00 0.00 0.00 0.00 0.00 0.00 0.00 0.00 0.00 0.00 0.00 0.00 0.00 0.00 0.00 0.00 0.00 0.00 0.00 0.00 0.00 0.00 0.00 0.00
0.00 0.00 0.00 0.00 0.00 0.00 0.00 0.00 0.00 0.00 0.00 0.00 0.00 0.00 0.00 0.00 0.00 0.00 0.00 0.00 0.00 0.00 0.00 0.00 0.00 0.00 0.00 0.00 0.00 0.00 0.00 0.00 0.00 0.00 0.00 0.00 0.00 0.00 0.00 0.00 0.00 0.00 0.00 0.00 0.00 0.00 0.00 0.00 0.00
0.00 0.00 0.00 0.00 0.00 0.00 0.00 0.00 0.00 0.00 0.00 0.00 0.00 0.00 0.00 0.00 0.00 0.00 0.00 0.00 0.00 0.01 0.01 0.00 0.00 0.00 0.00 0.00 0.00 0.00 0.00 0.00 0.00 0.00 0.00 0.00 0.00 0.00 0.00 0.00 0.00 0.00 0.00 0.00 0.00 0.00 0.00 0.00 0.00
0.00 0.00 0.00 0.00 0.00 0.00 0.00 0.00 0.00 0.00 0.00 0.00 0.00 0.00 0.00 0.00 0.00 0.00 0.00 0.00 0.00 0.01 0.01 0.01 0.01 0.01 0.00 0.00 0.00 0.00 0.00 0.00 0.00 0.00 0.00 0.00 0.00 0.00 0.00 0.00 0.00 0.00 0.00 0.00 0.00 0.00 0.00 0.00 0.00
0.00 0.00 0.00 0.00 0.00 0.00 0.00 0.00 0.00 0.00 0.00 0.00 0.00 0.00 0.00 0.00 0.00 0.00 0.00 0.00 0.01 0.02 0.03 0.02 0.01 0.02 0.01 0.01 0.02 0.01 0.00 0.00 0.00 0.00 0.00 0.00 0.00 0.00 0.00 0.01 0.00 0.00 0.00 0.00 0.00 0.00 0.00 0.00 0.00
0.00 0.00 0.00 0.00 0.00 0.00 0.00 0.00 0.00 0.00 0.00 0.00 0.00 0.00 0.00 0.00 0.00 0.00 0.00 0.01 0.01 0.04 0.10 0.06 0.02 0.02 0.03 0.02 0.02 0.03 0.01 0.01 0.01 0.01 0.00 0.00 0.00 0.00 0.00 0.00 0.00 0.00 0.00 0.00 0.00 0.00 0.00 0.00 0.00
0.00 0.00 0.00 0.00 0.00 0.00 0.00 0.00 0.00 0.00 0.00 0.00 0.00 0.00 0.00 0.00 0.00 0.00 0.00 0.01 0.01 0.04 0.11 0.14 0.05 0.02 0.02 0.03 0.04 0.03 0.03 0.03 0.02 0.01 0.01 0.01 0.00 0.00 0.00 0.00 0.00 0.00 0.00 0.00 0.00 0.00 0.00 0.00 0.00
0.00 0.00 0.00 0.00 0.00 0.00 0.00 0.00 0.00 0.00 0.00 0.00 0.00 0.00 0.00 0.00 0.00 0.00 0.00 0.01 0.02 0.06 0.07 0.11 0.09 0.05 0.03 0.02 0.05 0.04 0.04 0.04 0.03 0.02 0.02 0.01 0.01 0.01 0.01 0.01 0.00 0.00 0.00 0.01 0.01 0.00 0.00 0.00 0.00
0.00 0.00 0.00 0.00 0.00 0.00 0.00 0.00 0.00 0.00 0.00 0.00 0.00 0.00 0.00 0.00 0.00 0.00 0.00 0.01 0.01 0.03 0.03 0.05 0.09 0.15 0.13 0.08 0.05 0.05 0.04 0.06 0.04 0.03 0.04 0.04 0.02 0.01 0.01 0.01 0.00 0.00 0.00 0.01 0.01 0.00 0.00 0.00 0.00
0.00 0.00 0.00 0.00 0.00 0.00 0.00 0.00 0.00 0.00 0.00 0.00 0.00 0.00 0.00 0.00 0.00 0.00 0.00 0.01 0.01 0.01 0.02 0.04 0.06 0.09 0.14 0.20 0.16 0.09 0.08 0.07 0.04 0.04 0.04 0.04 0.04 0.02 0.02 0.02 0.01 0.01 0.01 0.01 0.01 0.01 0.01 0.00 0.00
0.00 0.00 0.00 0.00 0.00 0.00 0.00 0.00 0.00 0.00 0.00 0.00 0.00 0.00 0.00 0.00 0.00 0.01 0.01 0.01 0.01 0.01 0.02 0.06 0.12 0.13 0.14 0.17 0.15 0.09 0.08 0.08 0.07 0.06 0.05 0.04 0.03 0.02 0.03 0.03 0.02 0.02 0.02 0.03 0.03 0.03 0.02 0.02 0.02
0.00 0.00 0.00 0.00 0.00 0.00 0.00 0.00 0.00 0.00 0.00 0.00 0.00 0.00 0.00 0.00 0.01 0.01 0.01 0.02 0.02 0.03 0.06 0.10 0.16 0.19 0.17 0.14 0.11 0.08 0.06 0.08 0.10 0.07 0.06 0.04 0.03 0.04 0.04 0.05 0.04 0.05 0.05 0.05 0.06 0.05 0.06 0.06 0.06
0.00 0.00 0.00 0.00 0.00 0.00 0.00 0.00 0.00 0.00 0.00 0.00 0.00 0.00 0.00 0.01 0.01 0.03 0.03 0.05 0.06 0.07 0.11 0.14 0.14 0.20 0.23 0.20 0.17 0.13 0.10 0.08 0.10 0.10 0.09 0.06 0.05 0.06 0.06 0.07 0.07 0.08 0.08 0.07 0.07 0.07 0.07 0.06 0.06
0.00 0.00 0.00 0.00 0.00 0.00 0.00 0.00 0.00 0.00 0.00 0.00 0.00 0.00 0.00 0.01 0.01 0.03 0.04 0.06 0.10 0.10 0.14 0.19 0.22 0.20 0.24 0.28 0.27 0.22 0.19 0.16 0.12 0.13 0.11 0.08 0.07 0.07 0.07 0.10 0.10 0.10 0.09 0.10 0.10 0.09 0.09 0.08 0.08
0.00 0.00 0.00 0.00 0.00 0.00 0.00 0.00 0.00 0.00 0.00 0.00 0.00 0.00 0.00 0.00 0.01 0.02 0.03 0.03 0.05 0.08 0.14 0.17 0.20 0.21 0.24 0.30 0.30 0.29 0.26 0.22 0.19 0.16 0.15 0.13 0.11 0.10 0.10 0.13 0.15 0.14 0.14 0.12 0.11 0.10 0.09 0.10 0.10
0.00 0.00 0.00 0.00 0.00 0.00 0.00 0.00 0.00 0.00 0.00 0.00 0.00 0.00 0.00 0.00 0.01 0.02 0.01 0.03 0.04 0.07 0.13 0.18 0.21 0.22 0.24 0.32 0.36 0.30 0.29 0.25 0.24 0.25 0.24 0.19 0.20 0.21 0.20 0.19 0.19 0.16 0.14 0.11 0.10 0.10 0.09 0.10 0.10
0.00 0.00 0.00 0.00 0.00 0.00 0.00 0.00 0.00 0.00 0.00 0.00 0.00 0.00 0.00 0.01 0.01 0.01 0.01 0.02 0.04 0.06 0.08 0.12 0.16 0.19 0.25 0.34 0.38 0.35 0.33 0.30 0.30 0.32 0.28 0.28 0.26 0.26 0.26 0.23 0.20 0.17 0.14 0.11 0.12 0.10 0.08 0.07 0.07
0.00 0.00 0.00 0.00 0.00 0.00 0.01 0.01 0.01 0.01 0.01 0.01 0.01 0.01 0.01 0.01 0.01 0.02 0.02 0.03 0.04 0.05 0.07 0.09 0.12 0.17 0.21 0.27 0.37 0.39 0.37 0.34 0.38 0.42 0.35 0.31 0.28 0.25 0.25 0.23 0.21 0.18 0.16 0.13 0.11 0.08 0.07 0.06 0.07
0.00 0.00 0.00 0.00 0.00 0.00 0.01 0.02 0.02 0.02 0.03 0.02 0.01 0.01 0.01 0.01 0.01 0.02 0.02 0.03 0.04 0.04 0.07 0.09 0.11 0.16 0.21 0.28 0.37 0.44 0.43 0.41 0.39 0.36 0.33 0.28 0.26 0.25 0.26 0.23 0.21 0.19 0.16 0.13 0.10 0.08 0.08 0.08 0.07
0.00 0.00 0.00 0.00 0.00 0.01 0.01 0.03 0.05 0.05 0.05 0.03 0.02 0.03 0.02 0.02 0.02 0.03 0.03 0.03 0.03 0.04 0.06 0.08 0.10 0.17 0.25 0.29 0.31 0.36 0.41 0.41 0.38 0.32 0.28 0.25 0.23 0.21 0.21 0.20 0.19 0.17 0.14 0.10 0.08 0.08 0.08 0.07 0.07
0.00 0.00 0.00 0.00 0.00 0.01 0.01 0.02 0.04 0.06 0.07 0.04 0.02 0.03 0.03 0.02 0.02 0.02 0.02 0.02 0.03 0.04 0.06 0.09 0.11 0.14 0.19 0.24 0.24 0.29 0.33 0.37 0.38 0.33 0.31 0.29 0.25 0.23 0.22 0.20 0.18 0.15 0.12 0.08 0.07 0.06 0.05 0.05 0.04
0.00 0.00 0.00 0.00 0.00 0.01 0.01 0.02 0.05 0.07 0.07 0.04 0.03 0.03 0.03 0.02 0.02 0.02 0.02 0.02 0.03 0.04 0.06 0.07 0.10 0.14 0.16 0.18 0.21 0.23 0.28 0.32 0.34 0.34 0.32 0.33 0.29 0.27 0.26 0.21 0.18 0.14 0.10 0.08 0.07 0.05 0.05 0.04 0.03
0.00 0.00 0.01 0.01 0.01 0.01 0.01 0.02 0.05 0.05 0.06 0.05 0.05 0.04 0.03 0.03 0.04 0.03 0.03 0.03 0.04 0.04 0.05 0.06 0.08 0.12 0.16 0.19 0.23 0.28 0.30 0.34 0.37 0.38 0.35 0.33 0.30 0.29 0.26 0.21 0.17 0.13 0.09 0.07 0.05 0.04 0.04 0.03 0.02
0.00 0.00 0.01 0.01 0.00 0.01 0.02 0.04 0.04 0.04 0.04 0.04 0.04 0.04 0.04 0.03 0.03 0.03 0.03 0.04 0.05 0.06 0.06 0.07 0.08 0.11 0.12 0.14 0.15 0.19 0.24 0.26 0.30 0.30 0.30 0.32 0.29 0.24 0.19 0.16 0.12 0.08 0.06 0.05 0.03 0.03 0.02 0.02 0.01
0.00 0.00 0.01 0.01 0.00 0.02 0.03 0.03 0.03 0.03 0.04 0.05 0.04 0.04 0.04 0.04 0.03 0.03 0.03 0.04 0.05 0.06 0.05 0.06 0.06 0.07 0.08 0.11 0.11 0.12 0.15 0.16 0.16 0.16 0.17 0.18 0.17 0.14 0.12 0.09 0.06 0.04 0.03 0.02 0.02 0.01 0.01 0.01 0.00
0.00 0.01 0.01 0.01 0.02 0.03 0.03 0.04 0.04 0.03 0.04 0.05 0.04 0.03 0.03 0.04 0.04 0.03 0.02 0.02 0.03 0.04 0.06 0.06 0.05 0.04 0.05 0.09 0.11 0.10 0.11 0.11 0.11 0.11 0.11 0.11 0.09 0.08 0.07 0.05 0.03 0.03 0.03 0.01 0.01 0.00 0.00 0.00 0.00
0.01 0.02 0.02 0.02 0.01 0.03 0.03 0.04 0.04 0.04 0.04 0.06 0.05 0.04 0.04 0.04 0.04 0.03 0.03 0.02 0.02 0.02 0.04 0.05 0.04 0.05 0.06 0.08 0.09 0.10 0.11 0.11 0.10 0.10 0.10 0.09 0.07 0.04 0.03 0.03 0.02 0.02 0.01 0.01 0.01 0.01 0.01 0.00 0.00
0.01 0.02 0.03 0.04 0.02 0.02 0.03 0.04 0.02 0.05 0.06 0.06 0.05 0.05 0.05 0.04 0.03 0.04 0.04 0.03 0.03 0.04 0.04 0.04 0.05 0.06 0.07 0.07 0.08 0.09 0.08 0.08 0.06 0.06 0.06 0.06 0.05 0.04 0.03 0.02 0.01 0.01 0.01 0.00 0.00 0.00 0.00 0.00 0.00
MSLP
1012.26 1012.52 1012.80 1013.03 1013.14 1013.10 1012.94 1012.70 1012.43 1012.21 1012.08 1012.04 1012.06 1012.11 1012.11 1012.02 1011.83 1011.56 1011.27 1011.04 1010.95 1011.06 1011.39 1011.90 1012.54 1013.20 1013.80 1014.28 1014.60 1014.79 1014.90 1015.01 1015.16 1015.42 1015.78 1016.21 1016.66 1017.05 1017.34 1017.49 1017.53 1017.48 1017.42 1017.40 1017.46 1017.61 1017.83 1018.09 1018.32
1012.19 1012.48 1012.77 1012.97 1013.04 1012.96 1012.74 1012.43 1012.11 1011.84 1011.66 1011.58 1011.58 1011.61 1011.61 1011.52 1011.33 1011.07 1010.79 1010.58 1010.51 1010.66 1011.02 1011.59 1012.29 1013.03 1013.72 1014.29 1014.70 1014.97 1015.14 1015.28 1015.45 1015.70 1016.02 1016.41 1016.80 1017.14 1017.39 1017.52 1017.54 1017.51 1017.48 1017.50 1017.61 1017.81 1018.07 1018.35 1018.58
1012.16 1012.46 1012.73 1012.90 1012.91 1012.76 1012.48 1012.10 1011.73 1011.40 1011.18 1011.07 1011.05 1011.07 1011.06 1010.98 1010.81 1010.57 1010.32 1010.13 1010.09 1010.26 1010.66 1011.28 1012.03 1012.85 1013.62 1014.28 1014.79 1015.15 1015.39 1015.57 1015.76 1016.00 1016.29 1016.62 1016.95 1017.23 1017.43 1017.54 1017.58 1017.58 1017.60 1017.67 1017.84 1018.08 1018.36 1018.64 1018.85
1012.18 1012.47 1012.70 1012.82 1012.77 1012.56 1012.21 1011.78 1011.34 1010.97 1010.71 1010.57 1010.53 1010.53 1010.53 1010.47 1010.34 1010.14 1009.93 1009.79 1009.78 1009.98 1010.40 1011.04 1011.83 1012.69 1013.53 1014.27 1014.86 1015.31 1015.62 1015.86 1016.07 1016.29 1016.55 1016.83 1017.10 1017.33 1017.51 1017.62 1017.68 1017.73 1017.80 1017.94 1018.14 1018.41 1018.70 1018.95 1019.12
1012.24 1012.50 1012.69 1012.75 1012.64 1012.37 1011.96 1011.48 1011.00 1010.59 1010.29 1010.12 1010.06 1010.06 1010.08 1010.05 1009.97 1009.83 1009.69 1009.59 1009.63 1009.85 1010.29 1010.92 1011.72 1012.59 1013.46 1014.25 1014.91 1015.42 1015.80 1016.09 1016.33 1016.55 1016.78 1017.02 1017.26 1017.46 1017.63 1017.76 1017.86 1017.96 1018.10 1018.28 1018.52 1018.79 1019.05 1019.25 1019.36
1012.31 1012.54 1012.68 1012.69 1012.53 1012.21 1011.77 1011.25 1010.73 1010.28 1009.95 1009.75 1009.67 1009.67 1009.71 1009.73 1009.72 1009.66 1009.59 1009.56 1009.64 1009.88 1010.31 1010.93 1011.69 1012.54 1013.40 1014.20 1014.89 1015.45 1015.89 1016.22 1016.49 1016.73 1016.95 1017.18 1017.40 1017.60 1017.78 1017.94 1018.09 1018.25 1018.44 1018.65 1018.90 1019.14 1019.35 1019.48 1019.51
1012.38 1012.56 1012.66 1012.62 1012.42 1012.08 1011.61 1011.08 1010.54 1010.06 1009.69 1009.46 1009.36 1009.36 1009.42 1009.49 1009.55 1009.58 1009.60 1009.65 1009.77 1010.03 1010.43 1011.00 1011.70 1012.49 1013.31 1014.08 1014.78 1015.37 1015.84 1016.22 1016.52 1016.79 1017.03 1017.27 1017.49 1017.71 1017.92 1018.12 1018.32 1018.52 1018.74 1018.97 1019.19 1019.38 1019.52 1019.57 1019.51
1012.40 1012.53 1012.58 1012.51 1012.30 1011.95 1011.48 1010.94 1010.39 1009.89 1009.49 1009.22 1009.09 1009.08 1009.16 1009.28 1009.41 1009.53 1009.64 1009.76 1009.93 1010.20 1010.58 1011.08 1011.71 1012.41 1013.15 1013.88 1014.55 1015.15 1015.65 1016.07 1016.42 1016.72 1017.00 1017.26 1017.51 1017.75 1018.00 1018.23 1018.47 1018.70 1018.93 1019.15 1019.34 1019.47 1019.52 1019.48 1019.34
1012.36 1012.45 1012.46 1012.36 1012.14 1011.79 1011.33 1010.80 1010.25 1009.73 1009.29 1008.99 1008.83 1008.80 1008.88 1009.03 1009.23 1009.42 1009.62 1009.82 1010.04 1010.31 1010.66 1011.11 1011.65 1012.26 1012.92 1013.58 1014.22 1014.81 1015.33 1015.78 1016.17 1016.52 1016.84 1017.14 1017.42 1017.70 1017.97 1018.23 1018.49 1018.74 1018.97 1019.16 1019.30 1019.37 1019.34 1019.22 1019.03
1012.28 1012.30 1012.27 1012.15 1011.92 1011.59 1011.15 1010.64 1010.09 1009.55 1009.08 1008.73 1008.52 1008.46 1008.53 1008.70 1008.94 1009.20 1009.47 1009.74 1010.01 1010.31 1010.64 1011.04 1011.51 1012.04 1012.62 1013.22 1013.82 1014.39 1014.93 1015.41 1015.84 1016.23 1016.58 1016.91 1017.22 1017.53 1017.82 1018.11 1018.38 1018.63 1018.85 1019.01 1019.11 1019.12 1019.04 1018.88 1018.65
1012.15 1012.12 1012.04 1011.90 1011.67 1011.35 1010.94 1010.44 1009.89 1009.34 1008.83 1008.43 1008.16 1008.05 1008.09 1008.25 1008.51 1008.82 1009.16 1009.49 1009.82 1010.15 1010.49 1010.87 1011.29 1011.77 1012.29 1012.84 1013.41 1013.97 1014.50 1015.00 1015.46 1015.87 1016.26 1016.61 1016.95 1017.27 1017.58 1017.87 1018.15 1018.39 1018.60 1018.75 1018.82 1018.81 1018.71 1018.53 1018.31
1012.01 1011.92 1011.79 1011.63 1011.40 1011.09 1010.70 1010.21 1009.66 1009.09 1008.55 1008.09 1007.75 1007.57 1007.56 1007.70 1007.95 1008.29 1008.67 1009.07 1009.46 1009.84 1010.22 1010.62 1011.04 1011.50 1011.99 1012.52 1013.06 1013.60 1014.13 1014.63 1015.10 1015.53 1015.92 1016.29 1016.63 1016.96 1017.27 1017.57 1017.85 1018.10 1018.30 1018.45 1018.53 1018.53 1018.45 1018.31 1018.12
1011.88 1011.73 1011.56 1011.37 1011.13 1010.83 1010.45 1009.98 1009.43 1008.83 1008.25 1007.73 1007.32 1007.07 1006.99 1007.08 1007.31 1007.66 1008.07 1008.52 1008.97 1009.43 1009.88 1010.33 1010.79 1011.27 1011.78 1012.30 1012.83 1013.36 1013.88 1014.36 1014.81 1015.23 1015.62 1015.98 1016.32 1016.65 1016.97 1017.27 1017.55 1017.81 1018.03 1018.21 1018.32 1018.37 1018.35 1018.28 1018.17
1011.77 1011.57 1011.36 1011.15 1010.90 1010.61 1010.23 1009.76 1009.22 1008.61 1007.99 1007.42 1006.94 1006.62 1006.46 1006.49 1006.68 1007.01 1007.43 1007.92 1008.44 1008.97 1009.51 1010.05 1010.59 1011.13 1011.68 1012.23 1012.76 1013.28 1013.77 1014.23 1014.65 1015.04 1015.41 1015.75 1016.08 1016.40 1016.72 1017.03 1017.32 1017.60 1017.85 1018.07 1018.24 1018.36 1018.43 1018.46 1018.46
1011.70 1011.46 1011.22 1010.98 1010.73 1010.43 1010.06 1009.61 1009.06 1008.45 1007.82 1007.21 1006.69 1006.29 1006.07 1006.02 1006.16 1006.45 1006.86 1007.37 1007.94 1008.55 1009.18 1009.82 1010.45 1011.08 1011.69 1012.28 1012.83 1013.35 1013.81 1014.23 1014.62 1014.97 1015.30 1015.61 1015.93 1016.25 1016.57 1016.89 1017.21 1017.52 1017.81 1018.07 1018.31 1018.51 1018.68 1018.82 1018.94
1011.64 1011.37 1011.11 1010.86 1010.61 1010.31 1009.96 1009.52 1009.00 1008.40 1007.77 1007.16 1006.61 1006.17 1005.89 1005.78 1005.85 1006.09 1006.47 1006.97 1007.56 1008.22 1008.92 1009.64 1010.37 1011.09 1011.78 1012.41 1012.99 1013.50 1013.95 1014.34 1014.68 1014.99 1015.29 1015.59 1015.90 1016.22 1016.55 1016.89 1017.23 1017.57 1017.89 1018.20 1018.50 1018.77 1019.03 1019.27 1019.49
1011.58 1011.30 1011.04 1010.79 1010.53 1010.25 1009.92 1009.51 1009.02 1008.47 1007.88 1007.29 1006.75 1006.31 1006.00 1005.84 1005.85 1006.02 1006.33 1006.78 1007.35 1008.01 1008.74 1009.53 1010.32 1011.11 1011.86 1012.55 1013.16 1013.68 1014.12 1014.49 1014.81 1015.10 1015.38 1015.67 1015.98 1016.32 1016.67 1017.04 1017.40 1017.76 1018.11 1018.45 1018.77 1019.09 1019.40 1019.70 1020.00
1011.49 1011.22 1010.97 1010.73 1010.49 1010.23 1009.93 1009.56 1009.13 1008.64 1008.13 1007.61 1007.13 1006.73 1006.42 1006.24 1006.19 1006.28 1006.50 1006.87 1007.36 1007.97 1008.67 1009.45 1010.27 1011.09 1011.89 1012.62 1013.26 1013.81 1014.26 1014.64 1014.96 1015.25 1015.54 1015.85 1016.18 1016.55 1016.93 1017.32 1017.71 1018.08 1018.43 1018.77 1019.09 1019.41 1019.73 1020.06 1020.39
1011.36 1011.12 1010.89 1010.67 1010.46 1010.22 1009.95 1009.64 1009.28 1008.89 1008.49 1008.09 1007.72 1007.39 1007.14 1006.96 1006.87 1006.88 1007.00 1007.24 1007.60 1008.09 1008.70 1009.40 1010.18 1011.00 1011.80 1012.56 1013.24 1013.83 1014.32 1014.73 1015.09 1015.42 1015.76 1016.11 1016.49 1016.90 1017.32 1017.74 1018.14 1018.51 1018.85 1019.15 1019.44 1019.72 1020.01 1020.32 1020.63
1011.19 1010.99 1010.80 1010.61 1010.42 1010.21 1009.98 1009.73 1009.45 1009.17 1008.91 1008.66 1008.44 1008.24 1008.08 1007.95 1007.85 1007.79 1007.79 1007.88 1008.06 1008.37 1008.81 1009.38 1010.06 1010.82 1011.60 1012.36 1013.08 1013.72 1014.28 1014.77 1015.20 1015.61 1016.02 1016.45 1016.89 1017.35 1017.82 1018.26 1018.67 1019.03 1019.33 1019.59 1019.82 1020.03 1020.25 1020.49 1020.76
1010.98 1010.83 1010.69 1010.53 1010.37 1010.18 1009.98 1009.78 1009.59 1009.44 1009.32 1009.25 1009.21 1009.18 1009.16 1009.11 1009.03 1008.93 1008.82 1008.73 1008.72 1008.81 1009.04 1009.41 1009.94 1010.58 1011.31 1012.07 1012.82 1013.53 1014.18 1014.77 1015.31 1015.83 1016.34 1016.85 1017.37 1017.89 1018.40 1018.86 1019.27 1019.61 1019.87 1020.07 1020.23 1020.36 1020.49 1020.65 1020.83
1010.77 1010.68 1010.58 1010.46 1010.31 1010.13 1009.95 1009.79 1009.68 1009.64 1009.67 1009.78 1009.94 1010.11 1010.25 1010.33 1010.30 1010.18 1009.98 1009.74 1009.52 1009.38 1009.37 1009.53 1009.87 1010.38 1011.02 1011.76 1012.54 1013.32 1014.07 1014.78 1015.46 1016.09 1016.71 1017.32 1017.91 1018.49 1019.02 1019.50 1019.90 1020.22 1020.44 1020.59 1020.67 1020.73 1020.78 1020.85 1020.96
1010.57 1010.55 1010.49 1010.39 1010.25 1010.07 1009.90 1009.76 1009.70 1009.75 1009.92 1010.21 1010.56 1010.93 1011.25 1011.47 1011.54 1011.43 1011.18 1010.83 1010.43 1010.08 1009.85 1009.79 1009.94 1010.30 1010.85 1011.56 1012.35 1013.20 1014.06 1014.89 1015.68 1016.44 1017.15 1017.84 1018.49 1019.10 1019.65 1020.13 1020.52 1020.81 1021.00 1021.11 1021.15 1021.15 1021.14 1021.15 1021.19
1010.42 1010.45 1010.43 1010.35 1010.20 1010.01 1009.82 1009.69 1009.66 1009.78 1010.06 1010.49 1011.02 1011.58 1012.09 1012.46 1012.64 1012.60 1012.34 1011.92 1011.41 1010.89 1010.47 1010.23 1010.21 1010.44 1010.90 1011.57 1012.38 1013.28 1014.21 1015.14 1016.04 1016.88 1017.67 1018.41 1019.08 1019.70 1020.24 1020.70 1021.07 1021.34 1021.51 1021.60 1021.62 1021.60 1021.57 1021.54 1021.55
1010.30 1010.39 1010.40 1010.33 1010.17 1009.96 1009.75 1009.61 1009.59 1009.75 1010.11 1010.66 1011.33 1012.04 1012.72 1013.25 1013.56 1013.60 1013.39 1012.96 1012.40 1011.80 1011.26 1010.89 1010.75 1010.87 1011.27 1011.89 1012.70 1013.62 1014.61 1015.60 1016.56 1017.45 1018.27 1019.02 1019.68 1020.27 1020.78 1021.20 1021.53 1021.78 1021.94 1022.03 1022.06 1022.06 1022.04 1022.02 1022.02
1010.23 1010.35 1010.38 1010.31 1010.15 1009.92 1009.70 1009.54 1009.52 1009.71 1010.12 1010.73 1011.50 1012.34 1013.15 1013.82 1014.26 1014.42 1014.30 1013.93 1013.39 1012.78 1012.21 1011.78 1011.58 1011.64 1011.98 1012.57 1013.36 1014.29 1015.28 1016.29 1017.26 1018.15 1018.96 1019.67 1020.28 1020.81 1021.25 1021.62 1021.90 1022.12 1022.28 1022.39 1022.45 1022.49 1022.51 1022.53 1022.56
1010.19 1010.33 1010.37 1010.30 1010.13 1009.90 1009.67 1009.51 1009.50 1009.70 1010.13 1010.78 1011.61 1012.53 1013.43 1014.21 1014.77 1015.06 1015.06 1014.81 1014.36 1013.82 1013.29 1012.88 1012.68 1012.73 1013.04 1013.59 1014.35 1015.25 1016.21 1017.19 1018.12 1018.96 1019.71 1020.35 1020.89 1021.34 1021.70 1021.99 1022.22 1022.41 1022.56 1022.69 1022.78 1022.87 1022.95 1023.03 1023.11
1010.15 1010.29 1010.33 1010.26 1010.11 1009.89 1009.68 1009.54 1009.54 1009.76 1010.21 1010.88 1011.73 1012.68 1013.63 1014.48 1015.14 1015.56 1015.70 1015.59 1015.29 1014.88 1014.47 1014.15 1014.00 1014.07 1014.37 1014.90 1015.61 1016.45 1017.35 1018.25 1019.10 1019.87 1020.53 1021.07 1021.52 1021.87 1022.15 1022.37 1022.55 1022.70 1022.84 1022.97 1023.10 1023.23 1023.37 1023.50 1023.63
1010.11 1010.22 1010.26 1010.20 1010.06 1009.89 1009.72 1009.63 1009.68 1009.93 1010.39 1011.07 1011.91 1012.86 1013.82 1014.71 1015.44 1015.96 1016.23 1016.29 1016.16 1015.93 1015.69 1015.50 1015.44 1015.57 1015.89 1016.39 1017.04 1017.80 1018.60 1019.40 1020.15 1020.81 1021.37 1021.83 1022.18 1022.45 1022.65 1022.81 1022.94 1023.05 1023.17 1023.29 1023.44 1023.59 1023.76 1023.93 1024.10
1010.05 1010.13 1010.15 1010.10 1010.00 1009.88 1009.79 1009.78 1009.91 1010.21 1010.70 1011.38 1012.21 1013.14 1014.08 1014.97 1015.73 1016.32 1016.71 1016.92 1016.97 1016.94 1016.87 1016.83 1016.90 1017.09 1017.43 1017.91 1018.50 1019.16 1019.86 1020.54 1021.18 1021.74 1022.21 1022.58 1022.87 1023.08 1023.24 1023.35 1023.43 1023.52 1023.61 1023.71 1023.84 1023.99 1024.17 1024.35 1024.52
Thickness
5777 5783 5787 5785 5775 5771 5774 5786 5789 5789 5792 5800 5802 5798 5796 5794 5790 5784 5806 5815 5814 5810 5802 5791 5787 5784 5782 5780 5778 5776 5774 5771 5769 5766 5764 5762 5761 5759 5757 5756 5755 5754 5753 5752 5751 5750 5749 5748 5747
5779 5782 5779 5776 5763 5760 5774 5788 5785 5789 5794 5799 5799 5796 5793 5796 5803 5802 5805 5809 5810 5806 5799 5792 5785 5782 5779 5777 5775 5773 5770 5768 5765 5763 5761 5759 5757 5756 5754 5753 5752 5751 5750 5749 5748 5747 5745 5744 5743
5776 5777 5771 5767 5760 5764 5777 5784 5786 5791 5795 5793 5793 5796 5795 5796 5801 5803 5806 5807 5806 5802 5797 5790 5783 5780 5777 5774 5772 5769 5767 5764 5762 5760 5758 5756 5754 5753 5751 5750 5749 5747 5746 5745 5744 5743 5742 5741 5740
5771 5767 5765 5757 5758 5775 5782 5786 5785 5785 5790 5793 5792 5790 5798 5804 5805 5807 5807 5805 5803 5800 5796 5787 5781 5778 5775 5772 5769 5766 5763 5761 5758 5756 5755 5753 5752 5750 5748 5746 5745 5744 5743 5742 5741 5740 5738 5738 5737
5768 5760 5749 5749 5761 5778 5784 5784 5783 5780 5783 5787 5788 5787 5793 5803 5808 5808 5804 5802 5800 5797 5793 5785 5778 5775 5772 5769 5766 5763 5760 5757 5755 5753 5752 5750 5749 5747 5745 5743 5742 5741 5740 5739 5738 5736 5735 5735 5734
5755 5753 5742 5745 5760 5773 5778 5781 5779 5778 5784 5788 5786 5785 5794 5803 5802 5802 5802 5798 5798 5794 5790 5781 5775 5772 5768 5765 5762 5760 5757 5754 5752 5750 5748 5746 5745 5744 5742 5740 5739 5738 5737 5736 5735 5733 5732 5732 5731
5750 5745 5744 5750 5755 5762 5770 5778 5773 5775 5778 5785 5789 5783 5793 5796 5799 5799 5798 5795 5794 5791 5787 5778 5773 5769 5765 5762 5759 5756 5753 5750 5748 5746 5745 5743 5741 5740 5739 5737 5736 5735 5734 5733 5732 5730 5729 5729 5729
5753 5745 5741 5745 5745 5753 5768 5770 5772 5771 5775 5790 5790 5781 5787 5792 5795 5795 5792 5790 5788 5786 5782 5776 5772 5768 5764 5760 5755 5751 5748 5746 5744 5742 5740 5739 5738 5736 5736 5735 5733 5732 5731 5730 5729 5728 5727 5727 5726
5745 5733 5736 5742 5741 5749 5761 5759 5768 5774 5775 5781 5788 5790 5791 5794 5791 5786 5783 5781 5780 5778 5776 5772 5770 5767 5764 5760 5753 5748 5744 5742 5740 5738 5736 5736 5738 5737 5734 5734 5730 5729 5728 5727 5726 5725 5725 5725 5725
5736 5730 5737 5743 5746 5747 5754 5754 5759 5761 5765 5772 5779 5786 5788 5786 5783 5780 5777 5774 5774 5772 5772 5771 5769 5765 5762 5758 5752 5748 5744 5741 5740 5740 5737 5737 5739 5738 5737 5731 5728 5727 5726 5725 5724 5724 5723 5725 5729
5733 5731 5736 5738 5743 5744 5745 5749 5756 5751 5754 5767 5771 5777 5782 5780 5779 5778 5777 5775 5773 5772 5770 5771 5766 5762 5760 5755 5751 5749 5746 5742 5741 5740 5737 5737 5736 5736 5734 5731 5727 5726 5726 5728 5725 5725 5728 5730 5731
5726 5729 5731 5734 5739 5737 5739 5743 5746 5749 5755 5770 5773 5777 5778 5775 5777 5777 5777 5775 5772 5769 5767 5768 5763 5758 5756 5753 5749 5747 5745 5743 5742 5738 5735 5735 5735 5735 5734 5731 5732 5730 5730 5730 5730 5729 5730 5729 5728
5720 5724 5729 5732 5734 5736 5736 5737 5739 5746 5757 5765 5769 5770 5772 5775 5776 5777 5777 5774 5769 5765 5763 5762 5759 5754 5751 5747 5746 5745 5744 5742 5740 5737 5734 5733 5733 5732 5731 5730 5729 5730 5730 5728 5726 5727 5727 5726 5726
5722 5723 5724 5729 5731 5732 5728 5734 5736 5741 5751 5755 5759 5762 5768 5770 5772 5771 5768 5766 5764 5761 5758 5757 5753 5749 5746 5743 5743 5743 5741 5738 5738 5735 5733 5731 5731 5730 5729 5728 5726 5726 5726 5726 5724 5724 5723 5722 5723
5717 5713 5720 5726 5728 5729 5726 5721 5730 5738 5743 5746 5752 5756 5759 5763 5765 5763 5762 5760 5759 5756 5753 5750 5749 5746 5743 5741 5739 5739 5738 5735 5734 5733 5731 5729 5729 5726 5725 5725 5723 5723 5722 5720 5719 5719 5719 5718 5719
5711 5708 5710 5719 5720 5723 5714 5713 5729 5734 5735 5737 5743 5748 5750 5753 5757 5758 5758 5755 5755 5752 5749 5746 5746 5742 5739 5737 5735 5734 5733 5731 5730 5729 5727 5725 5724 5722 5720 5721 5721 5719 5718 5717 5716 5716 5714 5714 5714
5704 5703 5704 5709 5715 5715 5711 5710 5722 5728 5727 5728 5733 5738 5741 5743 5745 5747 5749 5749 5748 5747 5744 5742 5742 5739 5736 5734 5732 5729 5727 5725 5725 5724 5722 5721 5719 5718 5716 5716 5715 5714 5714 5713 5713 5712 5710 5708 5706
5695 5699 5698 5700 5707 5707 5705 5706 5713 5718 5719 5720 5723 5727 5729 5730 5731 5736 5738 5740 5741 5741 5739 5738 5736 5734 5731 5729 5726 5723 5722 5721 5718 5717 5715 5714 5713 5713 5712 5710 5709 5709 5708 5707 5706 5704 5703 5702 5700
5693 5691 5693 5698 5705 5700 5699 5700 5703 5707 5710 5710 5712 5715 5716 5716 5720 5724 5727 5730 5731 5732 5732 5732 5730 5729 5726 5722 5719 5717 5716 5715 5713 5710 5707 5705 5706 5706 5705 5705 5703 5702 5701 5700 5699 5698 5695 5694 5694
5688 5686 5692 5696 5699 5694 5693 5693 5696 5696 5695 5695 5696 5699 5700 5704 5706 5710 5714 5719 5721 5722 5723 5724 5723 5723 5722 5721 5717 5715 5713 5709 5706 5703 5700 5698 5699 5699 5698 5697 5695 5694 5693 5691 5690 5690 5689 5687 5686
5685 5685 5688 5687 5692 5693 5688 5684 5687 5686 5687 5685 5686 5686 5688 5689 5692 5695 5701 5704 5708 5710 5713 5715 5715 5715 5715 5713 5711 5707 5703 5699 5696 5693 5690 5688 5688 5687 5688 5687 5685 5685 5685 5682 5681 5682 5682 5680 5678
5682 5692 5688 5684 5680 5686 5685 5677 5686 5683 5676 5673 5673 5674 5674 5676 5679 5682 5687 5690 5694 5698 5702 5704 5705 5705 5706 5705 5704 5700 5696 5691 5687 5683 5680 5676 5675 5675 5675 5675 5675 5674 5674 5673 5672 5672 5672 5672 5670
5685 5691 5685 5683 5680 5680 5686 5677 5686 5682 5671 5665 5663 5661 5662 5663 5666 5669 5672 5677 5681 5686 5690 5692 5694 5695 5696 5696 5695 5692 5688 5683 5677 5672 5668 5663 5662 5662 5662 5661 5661 5660 5660 5660 5660 5660 5661 5661 5660
5686 5682 5681 5680 5680 5667 5682 5679 5677 5678 5675 5663 5657 5654 5653 5653 5655 5657 5661 5665 5669 5673 5677 5680 5682 5683 5685 5685 5684 5682 5678 5673 5667 5661 5656 5652 5649 5648 5648 5648 5648 5648 5648 5647 5648 5649 5648 5647 5646
5679 5668 5661 5662 5665 5672 5689 5678 5673 5676 5674 5665 5654 5647 5646 5646 5646 5648 5650 5653 5656 5659 5663 5666 5669 5670 5671 5672 5671 5669 5667 5662 5656 5651 5646 5642 5638 5636 5635 5635 5635 5634 5635 5635 5636 5635 5635 5634 5634
5676 5671 5657 5651 5661 5674 5678 5670 5665 5666 5664 5658 5649 5643 5640 5639 5638 5638 5638 5640 5643 5646 5649 5652 5655 5655 5657 5657 5656 5654 5652 5649 5643 5638 5635 5630 5626 5624 5623 5623 5622 5622 5622 5623 5623 5623 5622 5621 5621
5671 5672 5680 5665 5668 5664 5669 5664 5653 5653 5648 5644 5638 5635 5632 5630 5629 5628 5628 5629 5631 5633 5635 5639 5641 5641 5642 5641 5640 5639 5637 5635 5630 5626 5623 5619 5615 5614 5612 5612 5611 5610 5610 5610 5611 5610 5610 5610 5611
5677 5676 5666 5660 5649 5649 5662 5662 5660 5649 5643 5637 5633 5628 5624 5621 5619 5618 5618 5618 5619 5621 5622 5625 5626 5627 5628 5628 5627 5624 5621 5619 5617 5614 5610 5607 5605 5603 5602 5601 5601 5600 5599 5599 5599 5599 5597 5597 5596
5668 5664 5662 5665 5665 5652 5649 5655 5665 5660 5650 5638 5629 5623 5616 5612 5609 5608 5607 5608 5609 5610 5611 5612 5612 5613 5613 5612 5611 5610 5606 5604 5602 5600 5598 5595 5593 5592 5591 5591 5591 5590 5589 5588 5588 5588 5587 5586 5584
5671 5667 5663 5651 5654 5659 5656 5646 5655 5657 5648 5635 5623 5614 5607 5603 5599 5598 5597 5598 5599 5598 5598 5599 5599 5600 5599 5598 5597 5595 5593 5591 5589 5587 5585 5584 5583 5582 5581 5581 5581 5580 5579 5578 5578 5577 5576 5575 5573